Location: Laguna de la Cañada del Gallo
(40.3974°N, 5.2096°W)
Time: 12:32:16
(UTC+00:00)

CARTOSAT-1 - Pass Details

Date: 18 April 2024
Orbit: 606 x 609 km, 97.6° (Epoch: 22 May)

Event Time Altitude Azimuth Distance (km) Brightness Sun altitude
Exits shadow 20:40:27 15° 182° (S) 1,665 5.5 -17.7°
Maximum altitude 20:43:55 59° 260° (W) 709 4.0 -18.2°
Drops below altitude 10° 20:48:09 10° 340° (NNW) 1,972 6.9 -18.9°
Sets 20:50:22 0° 344° (NNW) 2,880 7.8 -19.2°
